Regional Weather Roundup
Issued by NWS

Home | Current Version | Previous Version | Text Only | Print | Product List | Glossary On
Versions: 1 2 3 4 5 6 7 8 9 10 11 12 13 14 15 16 17 18 19 20 21 22 23 24 25 26 27 28 29 30 31 32 33 34 35 36 37 38 39 40 41 42 43 44 45 46 47 48 49 50
000
ASHW40 PHFO 172144
RWRHI

WEATHER ROUNDUP FOR HAWAII
NATIONAL WEATHER SERVICE HONOLULU HI
1100 AM HST THU AUG 17 2017

THIS IS AN AUTOMATED REPORT THAT HAS NOT BEEN QUALITY CONTROLLED.

NOTE..."FAIR" INDICATES FEW OR NO CLOUDS BELOW 12,000 FEET WITH NO
SIGNIFICANT WEATHER AND/OR OBSTRUCTIONS TO VISIBILITY.

* - THESE SITES REPORT LIMITED FIELDS
# - BUOY DATA PROVIDED BY PACIFIC ISLANDS OCEAN OBSERVING SYSTEM.

HIZ001>004-172200-
KAUAI-NIIHAU-

CITY           SKY/WX    TMP DP  RH WIND       PRES   REMARKS
LIHUE APT      MOSUNNY   87  72  60 NE13      30.04S HX  93
PORT ALLEN*      N/A     88 N/A N/A E14G21      N/A
POIPU*           N/A     86 N/A N/A E8G16       N/A
PRINCEVILLE*     N/A     82 N/A N/A E8G15       N/A
KOKOLE POINT*  NOT AVBL
MOLOAA DAIRY*    N/A     88  72  58 E3G12       N/A  HX  94
WAIMEA HTS*      N/A     88  64  45 W7G15       N/A
PUU OPAE*        N/A     79  66  65 W6G12       N/A
PUU LUA*       NOT AVBL
MAKAHA RIDGE*    N/A     79  66  65 W1G8        N/A
$$

HIZ005>011-172200-
OAHU-

CITY           SKY/WX    TMP DP  RH WIND       PRES   REMARKS
HONOLULU       MOSUNNY   85  63  47 E16G25    29.99F
KALAELOA       PTSUNNY   86  64  47 NE9       30.01S
KANEOHE MCB    MOSUNNY   85  68  56 NE10      29.99S
WHEELER FIELD  PTSUNNY   80  65  61 E6        30.01S
BELLOWS*         N/A    N/A N/A N/A NE15        N/A
KAHUKU*          N/A    N/A N/A N/A NE9G20      N/A
WHEELER*         N/A    N/A N/A N/A E7          N/A
WAIANAE HARBOR   N/A    N/A N/A N/A NE7G15      N/A
DILLINGHAM*      N/A     90  72  55 SW9G16      N/A  HX  96
KAHUKU TRN*      N/A     73  59  60 W10G21      N/A
KAWAILOA*        N/A     79  68  69 E9G21       N/A
KII*             N/A     82  72  69 E14         N/A
MAKUA RANGE*     N/A     86  63  45 W6G21       N/A
OAHU FOREST NW   N/A     75  64  69 E14G26      N/A
SCHOFIELD BRK*   N/A     64  50  59 MISG        N/A
SCHOFIELD S*   NOT AVBL
WAIANAE VLY*     N/A     84  64  51 NW6         N/A
KUAOKALA*        N/A     79  66  65 VRB15G24    N/A
HONOULIUULI*   NOT AVBL
MOKUOLOE IS*   NOT AVBL
PALEHUA*         N/A     75  64  69 NE10G21     N/A
WAIAWA PHB*    NOT AVBL
$$

HIZ012>013-172200-
MOLOKAI-

CITY           SKY/WX    TMP DP  RH WIND       PRES   REMARKS
MOLOKAI AIRPT  MOSUNNY   83  66  56 NE21      30.01F
KALAUPAPA      NOT AVBL
MAKAPULAPAI*     N/A     86  70  58 E16G22      N/A  HX  90
MOLOKAI 1*     NOT AVBL
PUU ALII*        N/A     65  61  87 N3G18       N/A
$$

HIZ016-172200-
KAHOOLAWE-

CITY           SKY/WX    TMP DP  RH WIND       PRES   REMARKS
KAHOOLAWE*     NOT AVBL
HAKIOAWA*        N/A     83  69  63 MISG      30.41F
HONOKANAIA*      N/A     87  67  51 E12       29.93F HX  90
KANELOA*         N/A     79  66  65 E13G22    30.06S
KEALIALALO*    NOT AVBL
LUA MAKIKA*    NOT AVBL
$$

HIZ014>015-172200-
LANAI-

CITY           SKY/WX    TMP DP  RH WIND       PRES   REMARKS
LANAI CITY     FAIR      80  66  62 E10       30.05S
LANAI 1*       NOT AVBL
$$

HIZ017>028-172200-
MAUI-

CITY           SKY/WX    TMP DP  RH WIND       PRES   REMARKS
KAHULUI        MOSUNNY   87  67  51 NE21      29.99F HX  90
KAPALUA-W MAUI MOSUNNY   84  63  48 NE15G24   30.00
HANA AIRPORT   MOSUNNY   84  68  58 NE5       30.03F
HANA*          NOT AVBL
HALEAKALA SUMM   N/A     61  16  17 NE18        N/A
MAALAEA BAY*     N/A     86 N/A N/A N20G33      N/A
HALEAKALA*     NOT AVBL
KAUPO GAP*     NOT AVBL
KULA 1*          N/A     65  59  82 NW3         N/A
$$

HIZ023>026-172200-
BIG ISLAND OF HAWAII COAST AND LOWER SLOPES-

CITY           SKY/WX    TMP DP  RH WIND       PRES   REMARKS
KAILUA KONA    MOSUNNY   85  68  56 S13       29.95F
HILO           SUNNY     82  69  64 N5        29.99F
HONOKAA*         N/A     81 N/A N/A VRB1        N/A
KAWAIHAE MWT*    N/A     86 N/A N/A W12         N/A
KAWAIHAE*        N/A     82 N/A N/A W13       29.94F
SOUTH POINT*     N/A     79 N/A N/A N15G23      N/A
UPOLU AIRPORT* NOT AVBL
KAMUELA*         N/A     79  59  50 NE14      30.08F
HAKALAU*         N/A     67  57  70 E6G12       N/A
KALOKO-HONOKO*   N/A     88  70  55 S8        29.94F HX  92
PALI 2*          N/A     81  57  44 SW12G21     N/A
KEALAKOMO*       N/A     88  63  42 NE16G26     N/A
KAUPULEHU*       N/A     86  66  51 W13G21      N/A
KAPAPALA*        N/A     78  64  60 SE5G12      N/A
LOWER KAHUKU*    N/A     70  63  78 SE3G12      N/A
PUHE CS*         N/A     86  68  54 W9G15       N/A
PUHO CS*         N/A     86  69  55 S5G12       N/A  HX  90
PTA KEAMUKU*     N/A     75  57  53 NE18G26     N/A
WAIKOLOA*        N/A     88  59  37 NE12G24     N/A
$$

HIZ027>028-172200-
BIG ISLAND OF HAWAII INTERIOR AND SUMMMITS-

CITY           SKY/WX    TMP DP  RH WIND       PRES   REMARKS
BRADSHAW FIELD SUNNY     73  48  41 W10       30.31S
MK VISITOR CEN   N/A     61  32  33 W7          N/A
MAUNA KEA*       N/A     46  16  29 SW9         N/A
MAUNA LOA*       N/A     55   9  15 MISG        N/A
MAUNA LOA 1*   NOT AVBL
PTA KIPUKA*      N/A     46  32  57 S7G18       N/A
PTA RANGE 17*    N/A     70  54  56 E12G18      N/A
PTA WEST*        N/A     73  55  53 NW9G20      N/A
NENE CABIN*      N/A     70  48  46 SE5G12      N/A
AHUMOA*          N/A     68  54  61 SW6G13      N/A
PTA PORTABLE*  NOT AVBL
PUU MALI*        N/A     64  55  72 NE10        N/A
$$

HIC003-172200-
NORTHWEST ISLANDS-

CITY           SKY/WX    TMP DP  RH WIND       PRES   REMARKS
MIDWAY ISLAND  MOSUNNY   84  75  74 E12       30.15S HX  92
MIDWAY NOS*      N/A     82 N/A N/A MISG      30.14S
FRENCH FRIGATE NOT AVBL
$$

PHZ110>124-180-172200-
BUOY REPORTS

STATION/POSITION TIME  TEMP    WIND        PRES    WAVE   SWELL
                       AIR SEA DIR/SP/G            HT/PER HT/DIR
                 (UTC) (F)     (DEG/KT/KT) (MB)    (FT/S) (FT/D)
BUOY 51001       2120   80 81   70/ 10/ 14 1017.6
BUOY 51101       2050   80 81   60/ 12/ 14 1018.1F   5/ 9   5/110
BUOY 51100       NOT AVBL
BUOY 51002       2120   80 80   70/ 14/ 16 1014.1
BUOY 51003       2050   80 82   40/ 10/ 12 1015.1F   6/ 7   5/ 80
BUOY 51004       2050      80   50/ 12/ 16 1013.7F   5/14   5/140
WAIMEA BAY#      2102      79                N/A     3/ 7
MOKAPU POINT#    2104      80                N/A     4/ 8   2/110
LANAI#           NOT AVBL
BARBERS PT 2#    NOT AVBL
PAUWELA#         2109      80                N/A     4/ 8
HILO#            2127      81                N/A     5/ 8   2/130
KANEOHE BAY#     2125      80                N/A     3/ 8
KANEOHE BAY 2#   NOT AVBL
HANALEI#         2122      81                N/A     4/ 8
KAHULUI HARBOR   2118   80 81   30/ 14/ 16 1015.6
HONOLULU HARBOR  2118   83 80  130/  3/  9 1016.3
PEARL HARBOR#    2000      80                N/A     2/14   2/160
KILO NALU        NOT AVBL
HILO HARBOR      2118   79 80  350/  5/  7 1015.1
MOKUOLOE         2036   81 81   60/ 11/ 15 1016.4F
NAWILIWILI       2118   81      40/  9/ 12 1016.7
WHOTS BUOY       NOT AVBL
BUOY 51028       NOT AVBL
$$

......................KEY........................................
  SKY/WX - SKY CONDITIONS/PRESENT WEATHER
  TMP    - TEMPERATURE IN FAHRENHEIT
  DWPT   - DEWPOINT IN FAHRENHEIT
  RH     - RELATIVE HUMIDITY IN PERCENT
  WIND   - DIRECTION AND SPEED /MPH FOR ISLANDS...KTS FOR BUOYS/
  PRES   - MEAN SEA LEVEL PRESSURE IN INCHES OF HG
  VSB    - VISIBILITY IN MILES
  HX     - HEAT INDEX
  WCI    - WIND CHILL INDEX
  VRB    - VARIABLE WIND DIRECTION
  N/A    - NOT AVAILABLE




USA.gov is the U.S. government's official web portal to all federal, state and local government web resources and services.